Time,TemperatureF,DewpointF,PressureIn,WindDirection,WindDirectionDegrees,WindSpeedMPH,WindSpeedGustMPH,Humidity,HourlyPrecipIn,Conditions,Clouds,dailyrainin,SoftwareType,DateUTC
2013-05-18 00:05:00,67.4,53.0,26.13,SE,127,0.0,-999.0,61,-99.99,,,0.00,weatherlink.com 1.10,2013-05-18 04:05:00,
2013-05-18 00:20:00,67.4,53.0,26.13,South,171,0.0,-999.0,61,-99.99,,,0.00,weatherlink.com 1.10,2013-05-18 04:20:00,
2013-05-18 00:35:00,67.4,55.0,26.13,ENE,76,0.0,-999.0,65,-99.99,,,0.00,weatherlink.com 1.10,2013-05-18 04:35:00,
2013-05-18 00:50:00,67.3,56.0,26.13,ESE,119,0.0,-999.0,67,-99.99,,,0.00,weatherlink.com 1.10,2013-05-18 04:50:00,
2013-05-18 01:05:00,67.2,56.0,26.13,ESE,119,0.0,-999.0,68,-99.99,,,0.00,weatherlink.com 1.10,2013-05-18 05:05:00,
2013-05-18 01:20:00,67.0,57.0,26.13,ESE,121,0.0,-999.0,70,-99.99,,,0.00,weatherlink.com 1.10,2013-05-18 05:20:00,
2013-05-18 01:35:00,66.7,57.0,26.13,ESE,115,0.0,-999.0,71,-99.99,,,0.00,weatherlink.com 1.10,2013-05-18 05:35:00,
2013-05-18 01:50:00,66.3,57.0,26.13,East,80,0.0,-999.0,73,-99.99,,,0.00,weatherlink.com 1.10,2013-05-18 05:50:00,
2013-05-18 02:05:00,65.9,57.0,26.13,ENE,58,0.0,-999.0,74,-99.99,,,0.00,weatherlink.com 1.10,2013-05-18 06:05:00,
2013-05-18 02:20:00,65.6,58.0,26.13,ENE,61,0.0,-999.0,75,-99.99,,,0.00,weatherlink.com 1.10,2013-05-18 06:20:00,
2013-05-18 02:35:00,65.3,57.0,26.13,ENE,61,0.0,-999.0,75,-99.99,,,0.00,weatherlink.com 1.10,2013-05-18 06:35:00,
2013-05-18 02:50:00,65.2,57.0,26.13,ENE,61,0.0,-999.0,76,-99.99,,,0.00,weatherlink.com 1.10,2013-05-18 06:50:00,
2013-05-18 03:05:00,65.1,57.0,26.13,ENE,61,0.0,-999.0,76,-99.99,,,0.00,weatherlink.com 1.10,2013-05-18 07:05:00,
2013-05-18 03:20:00,65.0,57.0,26.13,North,355,0.0,-999.0,76,-99.99,,,0.00,weatherlink.com 1.10,2013-05-18 07:20:00,
2013-05-18 03:35:00,64.9,57.0,26.13,North,355,0.0,-999.0,75,-99.99,,,0.00,weatherlink.com 1.10,2013-05-18 07:35:00,
2013-05-18 03:50:00,64.9,57.0,26.13,North,355,0.0,-999.0,75,-99.99,,,0.00,weatherlink.com 1.10,2013-05-18 07:50:00,
2013-05-18 04:05:00,64.8,57.0,26.13,North,355,0.0,-999.0,75,-99.99,,,0.00,weatherlink.com 1.10,2013-05-18 08:05:00,
2013-05-18 04:20:00,64.7,57.0,26.13,ESE,106,0.0,-999.0,75,-99.99,,,0.00,weatherlink.com 1.10,2013-05-18 08:20:00,
2013-05-18 04:35:00,64.6,57.0,26.13,ESE,108,0.0,-999.0,75,-99.99,,,0.00,weatherlink.com 1.10,2013-05-18 08:35:00,
2013-05-18 04:50:00,64.5,56.0,26.13,ESE,103,0.0,-999.0,75,-99.99,,,0.00,weatherlink.com 1.10,2013-05-18 08:50:00,
2013-05-18 05:05:00,64.4,56.0,26.13,ESE,104,0.0,-999.0,74,-99.99,,,0.00,weatherlink.com 1.10,2013-05-18 09:05:00,
2013-05-18 05:20:00,64.3,56.0,26.13,ESE,103,0.0,-999.0,74,-99.99,,,0.00,weatherlink.com 1.10,2013-05-18 09:20:00,
2013-05-18 05:35:00,64.3,56.0,26.13,SE,126,0.0,-999.0,75,-99.99,,,0.00,weatherlink.com 1.10,2013-05-18 09:35:00,
2013-05-18 05:50:00,64.2,57.0,26.13,SE,126,0.0,-999.0,77,-99.99,,,0.00,weatherlink.com 1.10,2013-05-18 09:50:00,
2013-05-18 06:05:00,64.2,57.0,26.13,NNW,336,0.0,-999.0,78,-99.99,,,0.00,weatherlink.com 1.10,2013-05-18 10:05:00,
2013-05-18 06:20:00,64.1,57.0,26.13,NNW,336,0.0,-999.0,78,-99.99,,,0.00,weatherlink.com 1.10,2013-05-18 10:20:00,
2013-05-18 06:35:00,64.2,58.0,26.13,ESE,106,0.0,-999.0,79,-99.99,,,0.00,weatherlink.com 1.10,2013-05-18 10:35:00,
2013-05-18 06:50:00,64.2,58.0,26.13,ESE,106,0.0,-999.0,79,-99.99,,,0.00,weatherlink.com 1.10,2013-05-18 10:50:00,
2013-05-18 07:05:00,64.1,57.0,26.13,ESE,113,0.0,-999.0,79,-99.99,,,0.00,weatherlink.com 1.10,2013-05-18 11:05:00,
2013-05-18 07:20:00,64.1,58.0,26.13,ESE,113,0.0,-999.0,80,-99.99,,,0.00,weatherlink.com 1.10,2013-05-18 11:20:00,
2013-05-18 07:35:00,64.2,58.0,26.13,SE,144,0.0,-999.0,80,-99.99,,,0.00,weatherlink.com 1.10,2013-05-18 11:35:00,
2013-05-18 07:50:00,64.4,58.0,26.13,NE,45,0.0,-999.0,79,-99.99,,,0.00,weatherlink.com 1.10,2013-05-18 11:50:00,
2013-05-18 08:05:00,64.7,58.0,26.13,ENE,71,0.0,-999.0,79,-99.99,,,0.00,weatherlink.com 1.10,2013-05-18 12:05:00,
2013-05-18 08:20:00,65.1,58.0,26.13,East,79,0.0,-999.0,78,-99.99,,,0.00,weatherlink.com 1.10,2013-05-18 12:20:00,
2013-05-18 08:35:00,65.1,58.0,26.13,ESE,118,0.0,-999.0,77,-99.99,,,0.00,weatherlink.com 1.10,2013-05-18 12:35:00,
2013-05-18 08:50:00,65.0,58.0,26.13,ESE,118,0.0,-999.0,77,-99.99,,,0.00,weatherlink.com 1.10,2013-05-18 12:50:00,
2013-05-18 09:05:00,64.9,58.0,26.13,ESE,118,0.0,-999.0,77,-99.99,,,0.00,weatherlink.com 1.10,2013-05-18 13:05:00,
2013-05-18 09:20:00,65.0,58.0,26.13,ESE,118,0.0,-999.0,77,-99.99,,,0.00,weatherlink.com 1.10,2013-05-18 13:20:00,
2013-05-18 09:35:00,65.1,57.0,26.13,ESE,118,0.0,-999.0,76,-99.99,,,0.00,weatherlink.com 1.10,2013-05-18 13:35:00,
2013-05-18 09:50:00,65.2,57.0,26.13,ESE,103,0.0,-999.0,76,-99.99,,,0.00,weatherlink.com 1.10,2013-05-18 13:50:00,
2013-05-18 10:05:00,65.3,57.0,26.13,North,360,0.0,-999.0,74,-99.99,,,0.00,weatherlink.com 1.10,2013-05-18 14:05:00,
2013-05-18 10:20:00,65.5,57.0,26.13,ESE,111,0.0,-999.0,75,-99.99,,,0.00,weatherlink.com 1.10,2013-05-18 14:20:00,
2013-05-18 10:35:00,65.4,57.0,26.13,ENE,61,0.0,-999.0,74,-99.99,,,0.00,weatherlink.com 1.10,2013-05-18 14:35:00,
2013-05-18 10:50:00,65.0,57.0,26.13,ESE,119,0.0,-999.0,74,-99.99,,,0.00,weatherlink.com 1.10,2013-05-18 14:50:00,
2013-05-18 11:05:00,64.5,56.0,26.13,ESE,111,0.0,-999.0,75,-99.99,,,0.00,weatherlink.com 1.10,2013-05-18 15:05:00,
2013-05-18 11:20:00,63.8,56.0,26.13,East,81,1.0,-999.0,76,-99.99,,,0.00,weatherlink.com 1.10,2013-05-18 15:20:00,
2013-05-18 11:35:00,63.1,56.0,26.13,East,82,0.0,-999.0,77,-99.99,,,0.00,weatherlink.com 1.10,2013-05-18 15:35:00,
2013-05-18 11:51:00,62.5,57.0,26.13,East,82,0.0,-999.0,83,-99.99,,,0.00,weatherlink.com 1.10,2013-05-18 15:51:00,
2013-05-18 12:06:00,61.8,58.0,26.13,East,82,0.0,-999.0,86,-99.99,,,0.01,weatherlink.com 1.10,2013-05-18 16:06:00,
2013-05-18 12:21:00,61.1,58.0,26.13,East,82,0.0,-999.0,89,-99.99,,,0.03,weatherlink.com 1.10,2013-05-18 16:21:00,
2013-05-18 12:36:00,61.5,59.0,26.13,ENE,75,0.0,-999.0,91,-99.99,,,0.04,weatherlink.com 1.10,2013-05-18 16:36:00,
2013-05-18 12:51:00,62.6,60.0,26.13,East,90,0.0,-999.0,91,-99.99,,,0.04,weatherlink.com 1.10,2013-05-18 16:51:00,
2013-05-18 13:06:00,62.4,59.0,26.13,ENE,76,0.0,-999.0,89,-99.99,,,0.04,weatherlink.com 1.10,2013-05-18 17:06:00,
2013-05-18 13:21:00,62.9,60.0,26.13,ENE,78,0.0,-999.0,90,-99.99,,,0.04,weatherlink.com 1.10,2013-05-18 17:21:00,
2013-05-18 13:36:00,63.2,60.0,26.13,ENE,78,0.0,-999.0,88,-99.99,,,0.04,weatherlink.com 1.10,2013-05-18 17:36:00,
2013-05-18 13:51:00,63.0,59.0,26.13,ENE,78,0.0,-999.0,88,-99.99,,,0.04,weatherlink.com 1.10,2013-05-18 17:51:00,
2013-05-18 14:06:00,63.0,59.0,26.13,NE,46,0.0,-999.0,88,-99.99,,,0.04,weatherlink.com 1.10,2013-05-18 18:06:00,
2013-05-18 14:21:00,63.2,60.0,26.13,NW,326,0.0,-999.0,90,-99.99,,,0.04,weatherlink.com 1.10,2013-05-18 18:21:00,
2013-05-18 14:36:00,63.4,60.0,26.13,ENE,59,0.0,-999.0,88,-99.99,,,0.04,weatherlink.com 1.10,2013-05-18 18:36:00,
2013-05-18 14:51:00,63.3,59.0,26.13,SE,134,0.0,-999.0,85,-99.99,,,0.04,weatherlink.com 1.10,2013-05-18 18:51:00,
2013-05-18 15:06:00,63.4,59.0,26.13,ENE,57,0.0,-999.0,86,-99.99,,,0.04,weatherlink.com 1.10,2013-05-18 19:06:00,
2013-05-18 15:21:00,63.5,60.0,26.13,East,83,0.0,-999.0,88,-99.99,,,0.04,weatherlink.com 1.10,2013-05-18 19:21:00,
2013-05-18 15:36:00,63.7,61.0,26.13,East,83,0.0,-999.0,90,-99.99,,,0.04,weatherlink.com 1.10,2013-05-18 19:36:00,
2013-05-18 15:51:00,63.5,61.0,26.13,ESE,103,0.0,-999.0,90,-99.99,,,0.04,weatherlink.com 1.10,2013-05-18 19:51:00,
2013-05-18 16:06:00,63.4,61.0,26.13,NE,49,0.0,-999.0,90,-99.99,,,0.04,weatherlink.com 1.10,2013-05-18 20:06:00,
2013-05-18 16:21:00,63.1,60.0,26.13,East,91,0.0,-999.0,90,-99.99,,,0.04,weatherlink.com 1.10,2013-05-18 20:21:00,
2013-05-18 16:36:00,63.1,60.0,26.13,ESE,117,0.0,-999.0,90,-99.99,,,0.04,weatherlink.com 1.10,2013-05-18 20:36:00,
2013-05-18 16:51:00,63.1,60.0,26.13,NNW,344,0.0,-999.0,90,-99.99,,,0.04,weatherlink.com 1.10,2013-05-18 20:51:00,
2013-05-18 17:06:00,62.9,60.0,26.13,ENE,69,0.0,-999.0,90,-99.99,,,0.04,weatherlink.com 1.10,2013-05-18 21:06:00,
2013-05-18 17:21:00,62.5,60.0,26.13,ESE,109,1.0,-999.0,90,-99.99,,,0.05,weatherlink.com 1.10,2013-05-18 21:21:00,
2013-05-18 17:36:00,62.2,60.0,26.13,SE,133,0.0,-999.0,91,-99.99,,,0.05,weatherlink.com 1.10,2013-05-18 21:36:00,
2013-05-18 17:51:00,62.1,60.0,26.13,East,79,0.0,-999.0,91,-99.99,,,0.05,weatherlink.com 1.10,2013-05-18 21:51:00,
2013-05-18 18:06:00,62.1,60.0,26.13,South,169,0.0,-999.0,91,-99.99,,,0.05,weatherlink.com 1.10,2013-05-18 22:06:00,
2013-05-18 18:21:00,62.0,59.0,26.13,SE,144,0.0,-999.0,91,-99.99,,,0.05,weatherlink.com 1.10,2013-05-18 22:21:00,
2013-05-18 18:36:00,61.8,59.0,26.13,ESE,105,0.0,-999.0,90,-99.99,,,0.05,weatherlink.com 1.10,2013-05-18 22:36:00,
2013-05-18 18:51:00,61.6,59.0,26.13,ESE,110,0.0,-999.0,91,-99.99,,,0.05,weatherlink.com 1.10,2013-05-18 22:51:00,
2013-05-18 19:06:00,61.4,59.0,26.13,SE,133,0.0,-999.0,91,-99.99,,,0.05,weatherlink.com 1.10,2013-05-18 23:06:00,
2013-05-18 19:21:00,61.4,59.0,26.13,SE,125,0.0,-999.0,91,-99.99,,,0.05,weatherlink.com 1.10,2013-05-18 23:21:00,
2013-05-18 19:36:00,61.3,59.0,26.13,SE,137,0.0,-999.0,91,-99.99,,,0.05,weatherlink.com 1.10,2013-05-18 23:36:00,
2013-05-18 19:51:00,61.3,59.0,26.13,SE,146,0.0,-999.0,91,-99.99,,,0.05,weatherlink.com 1.10,2013-05-18 23:51:00,
2013-05-18 20:06:00,61.2,59.0,26.13,NE,40,0.0,-999.0,91,-99.99,,,0.05,weatherlink.com 1.10,2013-05-19 00:06:00,
2013-05-18 20:21:00,61.3,59.0,26.13,ESE,110,0.0,-999.0,91,-99.99,,,0.05,weatherlink.com 1.10,2013-05-19 00:21:00,
2013-05-18 20:36:00,61.3,59.0,26.13,East,98,0.0,-999.0,91,-99.99,,,0.05,weatherlink.com 1.10,2013-05-19 00:36:00,
2013-05-18 20:51:00,61.1,59.0,26.13,NE,37,0.0,-999.0,92,-99.99,,,0.05,weatherlink.com 1.10,2013-05-19 00:51:00,
2013-05-18 21:06:00,60.8,59.0,26.13,East,92,0.0,-999.0,93,-99.99,,,0.05,weatherlink.com 1.10,2013-05-19 01:06:00,
2013-05-18 21:21:00,60.4,58.0,26.13,NNW,327,0.0,-999.0,93,-99.99,,,0.05,weatherlink.com 1.10,2013-05-19 01:21:00,
2013-05-18 21:36:00,60.2,58.0,26.13,SW,217,0.0,-999.0,93,-99.99,,,0.05,weatherlink.com 1.10,2013-05-19 01:36:00,
2013-05-18 21:51:00,60.2,58.0,26.13,NNE,13,0.0,-999.0,93,-99.99,,,0.05,weatherlink.com 1.10,2013-05-19 01:51:00,
2013-05-18 22:06:00,60.2,58.0,26.13,ESE,106,0.0,-999.0,93,-99.99,,,0.05,weatherlink.com 1.10,2013-05-19 02:06:00,
2013-05-18 22:21:00,60.1,58.0,26.13,NE,48,0.0,-999.0,93,-99.99,,,0.05,weatherlink.com 1.10,2013-05-19 02:21:00,
2013-05-18 22:36:00,60.1,58.0,26.13,East,91,0.0,-999.0,94,-99.99,,,0.05,weatherlink.com 1.10,2013-05-19 02:36:00,
2013-05-18 22:51:00,60.0,58.0,26.13,East,91,0.0,-999.0,94,-99.99,,,0.05,weatherlink.com 1.10,2013-05-19 02:51:00,
2013-05-18 23:06:00,60.0,58.0,26.13,East,89,0.0,-999.0,93,-99.99,,,0.05,weatherlink.com 1.10,2013-05-19 03:06:00,
2013-05-18 23:21:00,60.1,58.0,26.13,SE,133,0.0,-999.0,93,-99.99,,,0.05,weatherlink.com 1.10,2013-05-19 03:21:00,
2013-05-18 23:36:00,60.1,58.0,26.13,North,360,0.0,-999.0,93,-99.99,,,0.05,weatherlink.com 1.10,2013-05-19 03:36:00,
2013-05-18 23:51:00,60.1,58.0,26.13,NNE,15,0.0,-999.0,94,-99.99,,,0.05,weatherlink.com 1.10,2013-05-19 03:51:00,